Time,TemperatureF,DewpointF,PressureIn,WindDirection,WindDirectionDegrees,WindSpeedMPH,WindSpeedGustMPH,Humidity,HourlyPrecipIn,Conditions,Clouds,dailyrainin,SoftwareType,DateUTC
2013-04-17 00:00:00,45.6,35.3,30.30,NNW,337,0.0,1.0,67,0.00,,---,0.00,VWS V13.01,2013-04-17 04:00:00,
2013-04-17 00:30:00,44.8,34.9,30.32,North,352,0.0,7.0,68,0.00,,---,0.00,VWS V13.01,2013-04-17 04:30:00,
2013-04-17 01:00:00,44.6,34.7,30.32,North,7,0.0,1.0,68,0.00,,---,0.00,VWS V13.01,2013-04-17 05:00:00,
2013-04-17 01:30:00,44.7,34.4,30.34,NNE,23,5.0,8.0,67,0.00,,---,0.00,VWS V13.01,2013-04-17 05:30:00,
2013-04-17 02:00:00,44.6,34.0,30.36,North,8,0.0,10.0,66,0.00,,---,0.00,VWS V13.01,2013-04-17 06:00:00,
2013-04-17 02:30:00,44.6,33.6,30.34,ENE,61,0.0,1.0,65,0.00,,---,0.00,VWS V13.01,2013-04-17 06:30:00,
2013-04-17 03:00:00,44.5,33.9,30.34,NE,35,0.0,8.0,66,0.00,,---,0.00,VWS V13.01,2013-04-17 07:00:00,
2013-04-17 03:30:00,44.3,33.7,30.35,East,80,0.0,11.0,66,0.00,,---,0.00,VWS V13.01,2013-04-17 07:30:00,
2013-04-17 04:00:00,43.8,33.6,30.35,ENE,74,0.0,9.0,67,0.00,,---,0.00,VWS V13.01,2013-04-17 08:00:00,
2013-04-17 04:30:00,44.0,34.1,30.36,ENE,68,0.0,9.0,68,0.00,,---,0.00,VWS V13.01,2013-04-17 08:30:00,
2013-04-17 05:00:00,43.7,34.9,30.37,ENE,68,0.0,10.0,71,0.00,,---,0.00,VWS V13.01,2013-04-17 09:00:00,
2013-04-17 05:30:00,43.4,35.3,30.36,ENE,64,0.0,10.0,73,0.00,,---,0.00,VWS V13.01,2013-04-17 09:30:00,
2013-04-17 06:00:00,43.2,35.5,30.33,NE,46,0.0,10.0,74,0.00,,---,0.00,VWS V13.01,2013-04-17 10:00:00,
2013-04-17 06:30:00,42.5,35.8,30.34,ENE,73,0.0,6.0,77,0.00,,---,0.00,VWS V13.01,2013-04-17 10:30:00,
2013-04-17 07:00:00,41.5,35.2,30.34,ENE,62,5.0,8.0,78,0.00,,---,0.00,VWS V13.01,2013-04-17 11:00:00,
2013-04-17 07:30:00,41.6,35.3,30.36,East,95,0.0,9.0,78,0.00,,---,0.00,VWS V13.01,2013-04-17 11:30:00,
2013-04-17 08:00:00,42.7,35.0,30.34,SE,133,0.0,8.0,74,0.00,,---,0.00,VWS V13.01,2013-04-17 12:00:00,
2013-04-17 08:30:00,43.7,34.9,30.34,ENE,71,4.0,11.0,71,0.00,,---,0.00,VWS V13.01,2013-04-17 12:30:00,
2013-04-17 09:00:00,47.0,36.2,30.34,SSE,159,0.0,9.0,66,0.00,,---,0.00,VWS V13.01,2013-04-17 13:00:00,
2013-04-17 09:30:00,48.6,36.2,30.36,East,94,4.0,12.0,62,0.00,,---,0.00,VWS V13.01,2013-04-17 13:30:00,
2013-04-17 10:00:00,49.6,35.9,30.34,ENE,73,0.0,15.0,59,0.00,,---,0.00,VWS V13.01,2013-04-17 14:00:00,
2013-04-17 10:30:00,51.7,37.0,30.33,ESE,106,2.0,9.0,57,0.00,,---,0.00,VWS V13.01,2013-04-17 14:30:00,
2013-04-17 11:00:00,53.2,37.5,30.34,SE,138,0.0,15.0,55,0.00,,---,0.00,VWS V13.01,2013-04-17 15:00:00,
2013-04-17 11:30:00,56.9,39.0,30.32,ENE,57,0.0,9.0,51,0.00,,---,0.00,VWS V13.01,2013-04-17 15:30:00,
2013-04-17 12:00:00,58.0,39.5,30.34,ESE,103,0.0,12.0,50,0.00,,---,0.00,VWS V13.01,2013-04-17 16:00:00,
2013-04-17 12:30:00,54.6,38.3,30.30,ESE,113,0.0,14.0,54,0.00,,---,0.00,VWS V13.01,2013-04-17 16:30:00,
2013-04-17 13:00:00,52.5,39.0,30.25,SE,128,0.0,8.0,60,0.00,,---,0.00,VWS V13.01,2013-04-17 17:00:00,
2013-04-17 13:30:00,53.3,39.8,30.19,ESE,103,0.0,17.0,60,0.00,,---,0.00,VWS V13.01,2013-04-17 17:30:00,
2013-04-17 14:00:00,52.1,39.9,30.20,SE,125,0.0,16.0,63,0.00,,---,0.00,VWS V13.01,2013-04-17 18:00:00,
2013-04-17 14:30:00,51.8,41.2,30.22,ENE,65,0.0,11.0,67,0.00,,---,0.00,VWS V13.01,2013-04-17 18:30:00,
2013-04-17 15:00:00,51.4,42.3,30.23,ENE,57,0.0,12.0,71,0.00,,---,0.00,VWS V13.01,2013-04-17 19:00:00,
2013-04-17 15:30:00,50.4,41.4,30.24,NE,49,0.0,10.0,71,0.00,,---,0.00,VWS V13.01,2013-04-17 19:30:00,
2013-04-17 16:00:00,48.6,43.4,30.16,ENE,59,0.0,12.0,82,0.03,,---,0.03,VWS V13.01,2013-04-17 20:00:00,
2013-04-17 16:30:00,47.1,43.4,30.13,East,96,0.0,12.0,87,0.07,,---,0.07,VWS V13.01,2013-04-17 20:30:00,
2013-04-17 17:00:00,46.2,43.7,30.17,NNE,27,0.0,12.0,91,0.22,,---,0.22,VWS V13.01,2013-04-17 21:00:00,
2013-04-17 17:30:00,45.1,43.2,30.16,WNW,289,4.0,13.0,93,0.27,,---,0.30,VWS V13.01,2013-04-17 21:30:00,
2013-04-17 18:00:00,44.7,43.4,30.15,ENE,62,4.0,13.0,95,0.61,,---,0.68,VWS V13.01,2013-04-17 22:00:00,
2013-04-17 18:30:00,44.5,43.2,30.18,NE,43,0.0,11.0,95,0.57,,---,0.79,VWS V13.01,2013-04-17 22:30:00,
2013-04-17 19:00:00,44.3,43.2,30.11,ESE,103,8.0,10.0,96,0.65,,---,0.95,VWS V13.01,2013-04-17 23:00:00,
2013-04-17 19:30:00,43.6,42.8,30.01,SE,128,9.0,19.0,97,0.43,,---,1.11,VWS V13.01,2013-04-17 23:30:00,
2013-04-17 20:00:00,43.9,43.4,30.05,NE,48,6.0,23.0,98,0.37,,---,1.16,VWS V13.01,2013-04-18 00:00:00,
2013-04-17 20:30:00,44.5,43.7,30.06,NE,45,0.0,14.0,97,0.25,,---,1.20,VWS V13.01,2013-04-18 00:30:00,
2013-04-17 21:00:00,44.9,43.8,30.08,NE,52,0.0,8.0,96,0.09,,---,1.20,VWS V13.01,2013-04-18 01:00:00,
2013-04-17 21:30:00,45.1,44.0,30.04,ESE,107,2.0,8.0,96,0.04,,---,1.20,VWS V13.01,2013-04-18 01:30:00,
2013-04-17 22:00:00,45.3,44.2,29.98,ESE,112,7.0,12.0,96,0.00,,---,1.20,VWS V13.01,2013-04-18 02:00:00,
2013-04-17 22:30:00,45.5,44.7,30.00,East,92,7.0,12.0,97,0.00,,---,1.20,VWS V13.01,2013-04-18 02:30:00,
2013-04-17 23:00:00,46.0,44.9,30.02,NE,54,7.0,11.0,96,0.00,,---,1.20,VWS V13.01,2013-04-18 03:00:00,
2013-04-17 23:30:00,46.1,45.0,30.00,NNE,14,0.0,12.0,96,0.00,,---,1.20,VWS V13.01,2013-04-18 03:30:00,